Year,Month,Day,Hour,Minute,Value (Times are PST for barometer in hPa)
2016,03,13,00,00,1000.53
2016,03,13,00,01,1000.51
2016,03,13,00,02,1000.51
2016,03,13,00,03,1000.51
2016,03,13,00,04,1000.51
2016,03,13,00,05,1000.51
2016,03,13,00,06,1000.51
2016,03,13,00,07,1000.51
2016,03,13,00,08,1000.51
2016,03,13,00,09,1000.51
2016,03,13,00,10,1000.51
2016,03,13,00,11,1000.51
2016,03,13,00,12,1000.51
2016,03,13,00,13,1000.51
2016,03,13,00,14,1000.51
2016,03,13,00,15,1000.17
2016,03,13,00,16,1000.17
2016,03,13,00,17,1000.17
2016,03,13,00,18,1000.17
2016,03,13,00,19,1000.17
2016,03,13,00,20,1000.17
2016,03,13,00,21,1000.17
2016,03,13,00,22,1000.17
2016,03,13,00,23,1000.17
2016,03,13,00,24,1000.17
2016,03,13,00,25,1000.17
2016,03,13,00,26,1000.17
2016,03,13,00,27,1000.17
2016,03,13,00,28,1000.17
2016,03,13,00,29,1000.17
2016,03,13,00,30,1000.41
2016,03,13,00,31,1000.41
2016,03,13,00,32,1000.41
2016,03,13,00,33,1000.41
2016,03,13,00,34,1000.41
2016,03,13,00,35,1000.41
2016,03,13,00,36,1000.41
2016,03,13,00,37,1000.41
2016,03,13,00,38,1000.41
2016,03,13,00,39,1000.41
2016,03,13,00,40,1000.41
2016,03,13,00,41,1000.41
2016,03,13,00,42,1000.41
2016,03,13,00,43,1000.41
2016,03,13,00,44,1000.41
2016,03,13,00,45,1000.17
2016,03,13,00,46,1000.17
2016,03,13,00,47,1000.17
2016,03,13,00,48,1000.17
2016,03,13,00,49,1000.17
2016,03,13,00,50,1000.17
2016,03,13,00,51,1000.17
2016,03,13,00,52,1000.17
2016,03,13,00,53,1000.17
2016,03,13,00,54,1000.17
2016,03,13,00,55,1000.17
2016,03,13,00,56,1000.17
2016,03,13,00,57,1000.17
2016,03,13,00,58,1000.17
2016,03,13,00,59,1000.17
2016,03,13,01,00,1000.17
2016,03,13,01,01,1000.17
2016,03,13,01,02,1000.17
2016,03,13,01,03,1000.17
2016,03,13,01,04,1000.17
2016,03,13,01,05,1000.17
2016,03,13,01,06,1000.17
2016,03,13,01,07,1000.17
2016,03,13,01,08,1000.17
2016,03,13,01,09,1000.17
2016,03,13,01,10,1000.17
2016,03,13,01,11,1000.17
2016,03,13,01,12,1000.17
2016,03,13,01,13,1000.17
2016,03,13,01,14,1000.17
2016,03,13,01,15,1000.07
2016,03,13,01,16,1000.07
2016,03,13,01,17,1000.07
2016,03,13,01,18,1000.07
2016,03,13,01,19,1000.07
2016,03,13,01,20,1000.07
2016,03,13,01,21,1000.07
2016,03,13,01,22,1000.07
2016,03,13,01,23,1000.07
2016,03,13,01,24,1000.07
2016,03,13,01,25,1000.07
2016,03,13,01,26,1000.07
2016,03,13,01,27,1000.07
2016,03,13,01,28,1000.07
2016,03,13,01,29,1000.07
2016,03,13,01,30,999.76
2016,03,13,01,31,999.76
2016,03,13,01,32,999.76
2016,03,13,01,33,999.76
2016,03,13,01,34,999.76
2016,03,13,01,35,999.76
2016,03,13,01,36,999.76
2016,03,13,01,37,999.76
2016,03,13,01,38,999.76
2016,03,13,01,39,999.76
2016,03,13,01,40,999.76
2016,03,13,01,41,999.76
2016,03,13,01,42,999.76
2016,03,13,01,43,999.76
2016,03,13,01,44,999.76
2016,03,13,01,45,999.66
2016,03,13,01,46,999.66
2016,03,13,01,47,999.66
2016,03,13,01,48,999.66
2016,03,13,01,49,999.66
2016,03,13,01,50,999.66
2016,03,13,01,51,999.66
2016,03,13,01,52,999.66
2016,03,13,01,53,999.66
2016,03,13,01,54,999.66
2016,03,13,01,55,999.66
2016,03,13,01,56,999.66
2016,03,13,01,57,999.66
2016,03,13,01,58,999.66
2016,03,13,01,59,999.66
2016,03,13,03,00,999.40
2016,03,13,03,01,999.39
2016,03,13,03,02,999.39
2016,03,13,03,03,999.39
2016,03,13,03,04,999.39
2016,03,13,03,05,999.39
2016,03,13,03,06,999.39
2016,03,13,03,07,999.39
2016,03,13,03,08,999.39
2016,03,13,03,09,999.39
2016,03,13,03,10,999.39
2016,03,13,03,11,999.39
2016,03,13,03,12,999.39
2016,03,13,03,13,999.39
2016,03,13,03,14,999.39
2016,03,13,03,15,999.12
2016,03,13,03,16,999.12
2016,03,13,03,17,999.12
2016,03,13,03,18,999.12
2016,03,13,03,19,999.12
2016,03,13,03,20,999.12
2016,03,13,03,21,999.12
2016,03,13,03,22,999.12
2016,03,13,03,23,999.12
2016,03,13,03,24,999.12
2016,03,13,03,25,999.12
2016,03,13,03,26,999.12
2016,03,13,03,27,999.12
2016,03,13,03,28,999.12
2016,03,13,03,29,999.12
2016,03,13,03,30,998.92
2016,03,13,03,31,998.92
2016,03,13,03,32,998.92
2016,03,13,03,33,998.92
2016,03,13,03,34,998.92
2016,03,13,03,35,998.92
2016,03,13,03,36,998.92
2016,03,13,03,37,998.92
2016,03,13,03,38,998.92
2016,03,13,03,39,998.92
2016,03,13,03,40,998.92
2016,03,13,03,41,998.92
2016,03,13,03,42,998.92
2016,03,13,03,43,998.92
2016,03,13,03,44,998.92
2016,03,13,03,45,998.62
2016,03,13,03,46,998.61
2016,03,13,03,47,998.61
2016,03,13,03,48,998.61
2016,03,13,03,49,998.61
2016,03,13,03,50,998.61
2016,03,13,03,51,998.61
2016,03,13,03,52,998.61
2016,03,13,03,53,998.61
2016,03,13,03,54,998.61
2016,03,13,03,55,998.61
2016,03,13,03,56,998.61
2016,03,13,03,57,998.61
2016,03,13,03,58,998.61
2016,03,13,03,59,998.61
2016,03,13,04,00,998.48
2016,03,13,04,01,998.48
2016,03,13,04,02,998.48
2016,03,13,04,03,998.48
2016,03,13,04,04,998.48
2016,03,13,04,05,998.48
2016,03,13,04,06,998.48
2016,03,13,04,07,998.48
2016,03,13,04,08,998.48
2016,03,13,04,09,998.48
2016,03,13,04,10,998.48
2016,03,13,04,11,998.48
2016,03,13,04,12,998.48
2016,03,13,04,13,998.48
2016,03,13,04,14,998.48
2016,03,13,04,15,998.10
2016,03,13,04,16,998.10
2016,03,13,04,17,998.10
2016,03,13,04,18,998.10
2016,03,13,04,19,998.10
2016,03,13,04,20,998.10
2016,03,13,04,21,998.10
2016,03,13,04,22,998.10
2016,03,13,04,23,998.10
2016,03,13,04,24,998.10
2016,03,13,04,25,998.10
2016,03,13,04,26,998.10
2016,03,13,04,27,998.10
2016,03,13,04,28,998.10
2016,03,13,04,29,998.10
2016,03,13,04,30,998.07
2016,03,13,04,31,998.07
2016,03,13,04,32,998.07
2016,03,13,04,33,998.07
2016,03,13,04,34,998.07
2016,03,13,04,35,998.07
2016,03,13,04,36,998.07
2016,03,13,04,37,998.07
2016,03,13,04,38,998.07
2016,03,13,04,39,998.07
2016,03,13,04,40,998.07
2016,03,13,04,41,998.07
2016,03,13,04,42,998.07
2016,03,13,04,43,998.07
2016,03,13,04,44,998.07
2016,03,13,04,45,997.90
2016,03,13,04,46,997.90
2016,03,13,04,47,997.90
2016,03,13,04,48,997.90
2016,03,13,04,49,997.90
2016,03,13,04,50,997.90
2016,03,13,04,51,997.90
2016,03,13,04,52,997.90
2016,03,13,04,53,997.90
2016,03,13,04,54,997.90
2016,03,13,04,55,997.90
2016,03,13,04,56,997.90
2016,03,13,04,57,997.90
2016,03,13,04,58,997.90
2016,03,13,04,59,997.90
2016,03,13,05,00,997.56
2016,03,13,05,01,997.56
2016,03,13,05,02,997.56
2016,03,13,05,03,997.56
2016,03,13,05,04,997.56
2016,03,13,05,05,997.56
2016,03,13,05,06,997.56
2016,03,13,05,07,997.56
2016,03,13,05,08,997.56
2016,03,13,05,09,997.56
2016,03,13,05,10,997.56
2016,03,13,05,11,997.56
2016,03,13,05,12,997.56
2016,03,13,05,13,997.56
2016,03,13,05,14,997.56
2016,03,13,05,15,997.16
2016,03,13,05,16,997.16
2016,03,13,05,17,997.16
2016,03,13,05,18,997.16
2016,03,13,05,19,997.16
2016,03,13,05,20,997.16
2016,03,13,05,21,997.16
2016,03,13,05,22,997.16
2016,03,13,05,23,997.16
2016,03,13,05,24,997.16
2016,03,13,05,25,997.16
2016,03,13,05,26,997.16
2016,03,13,05,27,997.16
2016,03,13,05,28,997.16
2016,03,13,05,29,997.16
2016,03,13,05,30,997.05
2016,03,13,05,31,997.05
2016,03,13,05,32,997.05
2016,03,13,05,33,997.05
2016,03,13,05,34,997.05
2016,03,13,05,35,997.05
2016,03,13,05,36,997.05
2016,03,13,05,37,997.05
2016,03,13,05,38,997.05
2016,03,13,05,39,997.05
2016,03,13,05,40,997.05
2016,03,13,05,41,997.05
2016,03,13,05,42,997.05
2016,03,13,05,43,997.05
2016,03,13,05,44,997.05
2016,03,13,05,45,997.05
2016,03,13,05,46,997.05
2016,03,13,05,47,997.05
2016,03,13,05,48,997.05
2016,03,13,05,49,997.05
2016,03,13,05,50,997.05
2016,03,13,05,51,997.05
2016,03,13,05,52,997.05
2016,03,13,05,53,997.05
2016,03,13,05,54,997.05
2016,03,13,05,55,997.05
2016,03,13,05,56,997.05
2016,03,13,05,57,997.05
2016,03,13,05,58,997.05
2016,03,13,05,59,997.05
2016,03,13,06,00,996.89
2016,03,13,06,01,996.89
2016,03,13,06,02,996.89
2016,03,13,06,03,996.89
2016,03,13,06,04,996.89
2016,03,13,06,05,996.89
2016,03,13,06,06,996.89
2016,03,13,06,07,996.89
2016,03,13,06,08,996.89
2016,03,13,06,09,996.89
2016,03,13,06,10,996.89
2016,03,13,06,11,996.89
2016,03,13,06,12,996.89
2016,03,13,06,13,996.89
2016,03,13,06,14,996.89
2016,03,13,06,15,996.58
2016,03,13,06,16,996.58
2016,03,13,06,17,996.58
2016,03,13,06,18,996.58
2016,03,13,06,19,996.58
2016,03,13,06,20,996.58
2016,03,13,06,21,996.58
2016,03,13,06,22,996.58
2016,03,13,06,23,996.58
2016,03,13,06,24,996.58
2016,03,13,06,25,996.58
2016,03,13,06,26,996.58
2016,03,13,06,27,996.58
2016,03,13,06,28,996.58
2016,03,13,06,29,996.58
2016,03,13,06,30,996.11
2016,03,13,06,31,996.11
2016,03,13,06,32,996.11
2016,03,13,06,33,996.11
2016,03,13,06,34,996.11
2016,03,13,06,35,996.11
2016,03,13,06,36,996.11
2016,03,13,06,37,996.11
2016,03,13,06,38,996.11
2016,03,13,06,39,996.11
2016,03,13,06,40,996.11
2016,03,13,06,41,996.11
2016,03,13,06,42,996.11
2016,03,13,06,43,996.11
2016,03,13,06,44,996.11
2016,03,13,06,45,995.80
2016,03,13,06,46,995.80
2016,03,13,06,47,995.80
2016,03,13,06,48,995.80
2016,03,13,06,49,995.80
2016,03,13,06,50,995.80
2016,03,13,06,51,995.80
2016,03,13,06,52,995.80
2016,03,13,06,53,995.80
2016,03,13,06,54,995.80
2016,03,13,06,55,995.80
2016,03,13,06,56,995.80
2016,03,13,06,57,995.80
2016,03,13,06,58,995.80
2016,03,13,06,59,995.80
2016,03,13,07,00,995.36
2016,03,13,07,01,995.36
2016,03,13,07,02,995.36
2016,03,13,07,03,995.36
2016,03,13,07,04,995.36
2016,03,13,07,05,995.36
2016,03,13,07,06,995.36
2016,03,13,07,07,995.36
2016,03,13,07,08,995.36
2016,03,13,07,09,995.36
2016,03,13,07,10,995.36
2016,03,13,07,11,995.36
2016,03,13,07,12,995.36
2016,03,13,07,13,995.36
2016,03,13,07,14,995.36
2016,03,13,07,15,994.75
2016,03,13,07,16,994.75
2016,03,13,07,17,994.75
2016,03,13,07,18,994.75
2016,03,13,07,19,994.75
2016,03,13,07,20,994.75
2016,03,13,07,21,994.75
2016,03,13,07,22,994.75
2016,03,13,07,23,994.75
2016,03,13,07,24,994.75
2016,03,13,07,25,994.75
2016,03,13,07,26,994.75
2016,03,13,07,27,994.75
2016,03,13,07,28,994.75
2016,03,13,07,29,994.75
2016,03,13,07,30,994.04
2016,03,13,07,31,994.04
2016,03,13,07,32,994.04
2016,03,13,07,33,994.04
2016,03,13,07,34,994.04
2016,03,13,07,35,994.04
2016,03,13,07,36,994.04
2016,03,13,07,37,994.04
2016,03,13,07,38,994.04
2016,03,13,07,39,994.04
2016,03,13,07,40,994.04
2016,03,13,07,41,994.04
2016,03,13,07,42,994.04
2016,03,13,07,43,994.04
2016,03,13,07,44,994.04
2016,03,13,07,45,993.80
2016,03,13,07,46,993.80
2016,03,13,07,47,993.80
2016,03,13,07,48,993.80
2016,03,13,07,49,993.80
2016,03,13,07,50,993.80
2016,03,13,07,51,993.80
2016,03,13,07,52,993.80
2016,03,13,07,53,993.80
2016,03,13,07,54,993.80
2016,03,13,07,55,993.80
2016,03,13,07,56,993.80
2016,03,13,07,57,993.80
2016,03,13,07,58,993.80
2016,03,13,07,59,993.80
2016,03,13,08,00,993.36
2016,03,13,08,01,993.36
2016,03,13,08,02,993.36
2016,03,13,08,03,993.36
2016,03,13,08,04,993.36
2016,03,13,08,05,993.36
2016,03,13,08,06,993.36
2016,03,13,08,07,993.36
2016,03,13,08,08,993.36
2016,03,13,08,09,993.36
2016,03,13,08,10,993.36
2016,03,13,08,11,993.36
2016,03,13,08,12,993.36
2016,03,13,08,13,993.36
2016,03,13,08,14,993.36
2016,03,13,08,15,992.88
2016,03,13,08,16,992.86
2016,03,13,08,17,992.86
2016,03,13,08,18,992.86
2016,03,13,08,19,992.86
2016,03,13,08,20,992.86
2016,03,13,08,21,992.86
2016,03,13,08,22,992.86
2016,03,13,08,23,992.86
2016,03,13,08,24,992.86
2016,03,13,08,25,992.86
2016,03,13,08,26,992.86
2016,03,13,08,27,992.86
2016,03,13,08,28,992.86
2016,03,13,08,29,992.86
2016,03,13,08,30,992.38
2016,03,13,08,31,992.38
2016,03,13,08,32,992.38
2016,03,13,08,33,992.38
2016,03,13,08,34,992.38
2016,03,13,08,35,992.38
2016,03,13,08,36,992.38
2016,03,13,08,37,992.38
2016,03,13,08,38,992.38
2016,03,13,08,39,992.38
2016,03,13,08,40,992.38
2016,03,13,08,41,992.38
2016,03,13,08,42,992.38
2016,03,13,08,43,992.38
2016,03,13,08,44,992.38
2016,03,13,08,45,991.94
2016,03,13,08,46,991.94
2016,03,13,08,47,991.94
2016,03,13,08,48,991.94
2016,03,13,08,49,991.94
2016,03,13,08,50,991.94
2016,03,13,08,51,991.94
2016,03,13,08,52,991.94
2016,03,13,08,53,991.94
2016,03,13,08,54,991.94
2016,03,13,08,55,991.94
2016,03,13,08,56,991.94
2016,03,13,08,57,991.94
2016,03,13,08,58,991.94
2016,03,13,08,59,991.94
2016,03,13,09,00,991.37
2016,03,13,09,01,991.37
2016,03,13,09,02,991.37
2016,03,13,09,03,991.37
2016,03,13,09,04,991.37
2016,03,13,09,05,991.37
2016,03,13,09,06,991.37
2016,03,13,09,07,991.37
2016,03,13,09,08,991.37
2016,03,13,09,09,991.37
2016,03,13,09,10,991.37
2016,03,13,09,11,991.37
2016,03,13,09,12,991.37
2016,03,13,09,13,991.37
2016,03,13,09,14,991.37
2016,03,13,09,15,990.93
2016,03,13,09,16,990.93
2016,03,13,09,17,990.93
2016,03,13,09,18,990.93
2016,03,13,09,19,990.93
2016,03,13,09,20,990.93
2016,03,13,09,21,990.93
2016,03,13,09,22,990.93
2016,03,13,09,23,990.93
2016,03,13,09,24,990.93
2016,03,13,09,25,990.93
2016,03,13,09,26,990.93
2016,03,13,09,27,990.93
2016,03,13,09,28,990.93
2016,03,13,09,29,990.93
2016,03,13,09,30,989.98
2016,03,13,09,31,989.98
2016,03,13,09,32,989.98
2016,03,13,09,33,989.98
2016,03,13,09,34,989.98
2016,03,13,09,35,989.98
2016,03,13,09,36,989.98
2016,03,13,09,37,989.98
2016,03,13,09,38,989.98
2016,03,13,09,39,989.98
2016,03,13,09,40,989.98
2016,03,13,09,41,989.98
2016,03,13,09,42,989.98
2016,03,13,09,43,989.98
2016,03,13,09,44,989.98
2016,03,13,09,45,989.30
2016,03,13,09,46,989.30
2016,03,13,09,47,989.30
2016,03,13,09,48,989.30
2016,03,13,09,49,989.30
2016,03,13,09,50,989.30
2016,03,13,09,51,989.30
2016,03,13,09,52,989.30
2016,03,13,09,53,989.30
2016,03,13,09,54,989.30
2016,03,13,09,55,989.30
2016,03,13,09,56,989.30
2016,03,13,09,57,989.30
2016,03,13,09,58,989.30
2016,03,13,09,59,989.30
2016,03,13,10,00,988.62
2016,03,13,10,01,988.62
2016,03,13,10,02,988.62
2016,03,13,10,03,988.62
2016,03,13,10,04,988.62
2016,03,13,10,05,988.62
2016,03,13,10,06,988.62
2016,03,13,10,07,988.62
2016,03,13,10,08,988.62
2016,03,13,10,09,988.62
2016,03,13,10,10,988.62
2016,03,13,10,11,988.62
2016,03,13,10,12,988.62
2016,03,13,10,13,988.62
2016,03,13,10,14,988.62
2016,03,13,10,15,988.28
2016,03,13,10,16,988.28
2016,03,13,10,17,988.28
2016,03,13,10,18,988.28
2016,03,13,10,19,988.28
2016,03,13,10,20,988.28
2016,03,13,10,21,988.28
2016,03,13,10,22,988.28
2016,03,13,10,23,988.28
2016,03,13,10,24,988.28
2016,03,13,10,25,988.28
2016,03,13,10,26,988.28
2016,03,13,10,27,988.28
2016,03,13,10,28,988.28
2016,03,13,10,29,988.28
2016,03,13,10,30,988.15
2016,03,13,10,31,988.15
2016,03,13,10,32,988.15
2016,03,13,10,33,988.15
2016,03,13,10,34,988.15
2016,03,13,10,35,988.15
2016,03,13,10,36,988.15
2016,03,13,10,37,988.15
2016,03,13,10,38,988.15
2016,03,13,10,39,988.15
2016,03,13,10,40,988.15
2016,03,13,10,41,988.15
2016,03,13,10,42,988.15
2016,03,13,10,43,988.15
2016,03,13,10,44,988.15
2016,03,13,10,45,987.91
2016,03,13,10,46,987.91
2016,03,13,10,47,987.91
2016,03,13,10,48,987.91
2016,03,13,10,49,987.91
2016,03,13,10,50,987.91
2016,03,13,10,51,987.91
2016,03,13,10,52,987.91
2016,03,13,10,53,987.91
2016,03,13,10,54,987.91
2016,03,13,10,55,987.91
2016,03,13,10,56,987.91
2016,03,13,10,57,987.91
2016,03,13,10,58,987.91
2016,03,13,10,59,987.91
2016,03,13,11,00,987.78
2016,03,13,11,01,987.78
2016,03,13,11,02,987.78
2016,03,13,11,03,987.78
2016,03,13,11,04,987.78
2016,03,13,11,05,987.78
2016,03,13,11,06,987.78
2016,03,13,11,07,987.78
2016,03,13,11,08,987.78
2016,03,13,11,09,987.78
2016,03,13,11,10,987.78
2016,03,13,11,11,987.78
2016,03,13,11,12,987.78
2016,03,13,11,13,987.78
2016,03,13,11,14,987.78
2016,03,13,11,15,987.64
2016,03,13,11,16,987.64
2016,03,13,11,17,987.64
2016,03,13,11,18,987.64
2016,03,13,11,19,987.64
2016,03,13,11,20,987.64
2016,03,13,11,21,987.64
2016,03,13,11,22,987.64
2016,03,13,11,23,987.64
2016,03,13,11,24,987.64
2016,03,13,11,25,987.64
2016,03,13,11,26,987.64
2016,03,13,11,27,987.64
2016,03,13,11,28,987.64
2016,03,13,11,29,987.64
2016,03,13,11,30,987.27
2016,03,13,11,31,987.27
2016,03,13,11,32,987.27
2016,03,13,11,33,987.27
2016,03,13,11,34,987.27
2016,03,13,11,35,987.27
2016,03,13,11,36,987.27
2016,03,13,11,37,987.27
2016,03,13,11,38,987.27
2016,03,13,11,39,987.27
2016,03,13,11,40,987.27
2016,03,13,11,41,987.27
2016,03,13,11,42,987.27
2016,03,13,11,43,987.27
2016,03,13,11,44,987.27
2016,03,13,11,45,987.30
2016,03,13,11,46,987.30
2016,03,13,11,47,987.30
2016,03,13,11,48,987.30
2016,03,13,11,49,987.30
2016,03,13,11,50,987.30
2016,03,13,11,51,987.30
2016,03,13,11,52,987.30
2016,03,13,11,53,987.30
2016,03,13,11,54,987.30
2016,03,13,11,55,987.30
2016,03,13,11,56,987.30
2016,03,13,11,57,987.30
2016,03,13,11,58,987.30
2016,03,13,11,59,987.30
2016,03,13,12,00,987.06
2016,03,13,12,01,987.06
2016,03,13,12,02,987.06
2016,03,13,12,03,987.06
2016,03,13,12,04,987.06
2016,03,13,12,05,987.06
2016,03,13,12,06,987.06
2016,03,13,12,07,987.06
2016,03,13,12,08,987.06
2016,03,13,12,09,987.06
2016,03,13,12,10,987.06
2016,03,13,12,11,987.06
2016,03,13,12,12,987.06
2016,03,13,12,13,987.06
2016,03,13,12,14,987.06
2016,03,13,12,15,986.76
2016,03,13,12,16,986.76
2016,03,13,12,17,986.76
2016,03,13,12,18,986.76
2016,03,13,12,19,986.76
2016,03,13,12,20,986.76
2016,03,13,12,21,986.76
2016,03,13,12,22,986.76
2016,03,13,12,23,986.76
2016,03,13,12,24,986.76
2016,03,13,12,25,986.76
2016,03,13,12,26,986.76
2016,03,13,12,27,986.76
2016,03,13,12,28,986.76
2016,03,13,12,29,986.76
2016,03,13,12,30,986.15
2016,03,13,12,31,986.15
2016,03,13,12,32,986.15
2016,03,13,12,33,986.15
2016,03,13,12,34,986.15
2016,03,13,12,35,986.15
2016,03,13,12,36,986.15
2016,03,13,12,37,986.15
2016,03,13,12,38,986.15
2016,03,13,12,39,986.15
2016,03,13,12,40,986.15
2016,03,13,12,41,986.15
2016,03,13,12,42,986.15
2016,03,13,12,43,986.15
2016,03,13,12,44,986.15
2016,03,13,12,45,985.57
2016,03,13,12,46,985.57
2016,03,13,12,47,985.57
2016,03,13,12,48,985.57
2016,03,13,12,49,985.57
2016,03,13,12,50,985.57
2016,03,13,12,51,985.57
2016,03,13,12,52,985.57
2016,03,13,12,53,985.57
2016,03,13,12,54,985.57
2016,03,13,12,55,985.57
2016,03,13,12,56,985.57
2016,03,13,12,57,985.57
2016,03,13,12,58,985.57
2016,03,13,12,59,985.57
2016,03,13,13,00,984.49
2016,03,13,13,01,984.49
2016,03,13,13,02,984.49
2016,03,13,13,03,984.49
2016,03,13,13,04,984.49
2016,03,13,13,05,984.49
2016,03,13,13,06,984.49
2016,03,13,13,07,984.49
2016,03,13,13,08,984.49
2016,03,13,13,09,984.49
2016,03,13,13,10,984.49
2016,03,13,13,11,984.49
2016,03,13,13,12,984.49
2016,03,13,13,13,984.49
2016,03,13,13,14,984.49
2016,03,13,13,15,984.08
2016,03,13,13,16,984.08
2016,03,13,13,17,984.08
2016,03,13,13,18,984.08
2016,03,13,13,19,984.08
2016,03,13,13,20,984.08
2016,03,13,13,21,984.08
2016,03,13,13,22,984.08
2016,03,13,13,23,984.08
2016,03,13,13,24,984.08
2016,03,13,13,25,984.08
2016,03,13,13,26,984.08
2016,03,13,13,27,984.08
2016,03,13,13,28,984.08
2016,03,13,13,29,984.08
2016,03,13,13,30,983.10
2016,03,13,13,31,983.10
2016,03,13,13,32,983.10
2016,03,13,13,33,983.10
2016,03,13,13,34,983.10
2016,03,13,13,35,983.10
2016,03,13,13,36,983.10
2016,03,13,13,37,983.10
2016,03,13,13,38,983.10
2016,03,13,13,39,983.10
2016,03,13,13,40,983.10
2016,03,13,13,41,983.10
2016,03,13,13,42,983.10
2016,03,13,13,43,983.10
2016,03,13,13,44,983.10
2016,03,13,13,45,982.49
2016,03,13,13,46,982.49
2016,03,13,13,47,982.49
2016,03,13,13,48,982.49
2016,03,13,13,49,982.49
2016,03,13,13,50,982.49
2016,03,13,13,51,982.49
2016,03,13,13,52,982.49
2016,03,13,13,53,982.49
2016,03,13,13,54,982.49
2016,03,13,13,55,982.49
2016,03,13,13,56,982.49
2016,03,13,13,57,982.49
2016,03,13,13,58,982.49
2016,03,13,13,59,982.49
2016,03,13,14,00,981.48
2016,03,13,14,01,981.48
2016,03,13,14,02,981.48
2016,03,13,14,03,981.48
2016,03,13,14,04,981.48
2016,03,13,14,05,981.48
2016,03,13,14,06,981.48
2016,03,13,14,07,981.48
2016,03,13,14,08,981.48
2016,03,13,14,09,981.48
2016,03,13,14,10,981.48
2016,03,13,14,11,981.48
2016,03,13,14,12,981.48
2016,03,13,14,13,981.48
2016,03,13,14,14,981.48
2016,03,13,14,15,981.00
2016,03,13,14,16,981.00
2016,03,13,14,17,981.00
2016,03,13,14,18,981.00
2016,03,13,14,19,981.00
2016,03,13,14,20,981.00
2016,03,13,14,21,981.00
2016,03,13,14,22,981.00
2016,03,13,14,23,981.00
2016,03,13,14,24,981.00
2016,03,13,14,25,981.00
2016,03,13,14,26,981.00
2016,03,13,14,27,981.00
2016,03,13,14,28,981.00
2016,03,13,14,29,981.00
2016,03,13,14,30,980.46
2016,03,13,14,31,980.46
2016,03,13,14,32,980.46
2016,03,13,14,33,980.46
2016,03,13,14,34,980.46
2016,03,13,14,35,980.46
2016,03,13,14,36,980.46
2016,03,13,14,37,980.46
2016,03,13,14,38,980.46
2016,03,13,14,39,980.46
2016,03,13,14,40,980.46
2016,03,13,14,41,980.46
2016,03,13,14,42,980.46
2016,03,13,14,43,980.46
2016,03,13,14,44,980.46
2016,03,13,14,45,979.89
2016,03,13,14,46,979.89
2016,03,13,14,47,979.89
2016,03,13,14,48,979.89
2016,03,13,14,49,979.89
2016,03,13,14,50,979.89
2016,03,13,14,51,979.89
2016,03,13,14,52,979.89
2016,03,13,14,53,979.89
2016,03,13,14,54,979.89
2016,03,13,14,55,979.89
2016,03,13,14,56,979.89
2016,03,13,14,57,979.89
2016,03,13,14,58,979.89
2016,03,13,14,59,979.89
2016,03,13,15,00,979.31
2016,03,13,15,01,979.31
2016,03,13,15,02,979.31
2016,03,13,15,03,979.31
2016,03,13,15,04,979.31
2016,03,13,15,05,979.31
2016,03,13,15,06,979.31
2016,03,13,15,07,979.31
2016,03,13,15,08,979.31
2016,03,13,15,09,979.31
2016,03,13,15,10,979.31
2016,03,13,15,11,979.31
2016,03,13,15,12,979.31
2016,03,13,15,13,979.31
2016,03,13,15,14,979.31
2016,03,13,15,15,979.14
2016,03,13,15,16,979.14
2016,03,13,15,17,979.14
2016,03,13,15,18,979.14
2016,03,13,15,19,979.14
2016,03,13,15,20,979.14
2016,03,13,15,21,979.14
2016,03,13,15,22,979.14
2016,03,13,15,23,979.14
2016,03,13,15,24,979.14
2016,03,13,15,25,979.14
2016,03,13,15,26,979.14
2016,03,13,15,27,979.14
2016,03,13,15,28,979.14
2016,03,13,15,29,979.14
2016,03,13,15,30,979.85
2016,03,13,15,31,979.89
2016,03,13,15,32,979.89
2016,03,13,15,33,979.89
2016,03,13,15,34,979.89
2016,03,13,15,35,979.89
2016,03,13,15,36,979.89
2016,03,13,15,37,979.89
2016,03,13,15,38,979.89
2016,03,13,15,39,979.89
2016,03,13,15,40,979.89
2016,03,13,15,41,979.89
2016,03,13,15,42,979.89
2016,03,13,15,43,979.89
2016,03,13,15,44,979.89
2016,03,13,15,45,979.92
2016,03,13,15,46,979.92
2016,03,13,15,47,979.92
2016,03,13,15,48,979.92
2016,03,13,15,49,979.92
2016,03,13,15,50,979.92
2016,03,13,15,51,979.92
2016,03,13,15,52,979.92
2016,03,13,15,53,979.92
2016,03,13,15,54,979.92
2016,03,13,15,55,979.92
2016,03,13,15,56,979.92
2016,03,13,15,57,979.92
2016,03,13,15,58,979.92
2016,03,13,15,59,979.92
2016,03,13,16,00,980.02
2016,03,13,16,01,980.02
2016,03,13,16,02,980.02
2016,03,13,16,03,980.02
2016,03,13,16,04,980.02
2016,03,13,16,05,980.02
2016,03,13,16,06,980.02
2016,03,13,16,07,980.02
2016,03,13,16,08,980.02
2016,03,13,16,09,980.02
2016,03,13,16,10,980.02
2016,03,13,16,11,980.02
2016,03,13,16,12,980.02
2016,03,13,16,13,980.02
2016,03,13,16,14,980.02
2016,03,13,16,15,980.43
2016,03,13,16,16,980.43
2016,03,13,16,17,980.43
2016,03,13,16,18,980.43
2016,03,13,16,19,980.43
2016,03,13,16,20,980.43
2016,03,13,16,21,980.43
2016,03,13,16,22,980.43
2016,03,13,16,23,980.43
2016,03,13,16,24,980.43
2016,03,13,16,25,980.43
2016,03,13,16,26,980.43
2016,03,13,16,27,980.43
2016,03,13,16,28,980.43
2016,03,13,16,29,980.43
2016,03,13,16,30,981.04
2016,03,13,16,31,981.07
2016,03,13,16,32,981.07
2016,03,13,16,33,981.07
2016,03,13,16,34,981.07
2016,03,13,16,35,981.07
2016,03,13,16,36,981.07
2016,03,13,16,37,981.07
2016,03,13,16,38,981.07
2016,03,13,16,39,981.07
2016,03,13,16,40,981.07
2016,03,13,16,41,981.07
2016,03,13,16,42,981.07
2016,03,13,16,43,981.07
2016,03,13,16,44,981.07
2016,03,13,16,45,981.48
2016,03,13,16,46,981.48
2016,03,13,16,47,981.48
2016,03,13,16,48,981.48
2016,03,13,16,49,981.48
2016,03,13,16,50,981.48
2016,03,13,16,51,981.48
2016,03,13,16,52,981.48
2016,03,13,16,53,981.48
2016,03,13,16,54,981.48
2016,03,13,16,55,981.48
2016,03,13,16,56,981.48
2016,03,13,16,57,981.48
2016,03,13,16,58,981.48
2016,03,13,16,59,981.48
2016,03,13,17,00,982.09
2016,03,13,17,01,982.09
2016,03,13,17,02,982.09
2016,03,13,17,03,982.09
2016,03,13,17,04,982.09
2016,03,13,17,05,982.09
2016,03,13,17,06,982.09
2016,03,13,17,07,982.09
2016,03,13,17,08,982.09
2016,03,13,17,09,982.09
2016,03,13,17,10,982.09
2016,03,13,17,11,982.09
2016,03,13,17,12,982.09
2016,03,13,17,13,982.09
2016,03,13,17,14,982.09
2016,03,13,17,15,983.37
2016,03,13,17,16,983.37
2016,03,13,17,17,983.37
2016,03,13,17,18,983.37
2016,03,13,17,19,983.37
2016,03,13,17,20,983.37
2016,03,13,17,21,983.37
2016,03,13,17,22,983.37
2016,03,13,17,23,983.37
2016,03,13,17,24,983.37
2016,03,13,17,25,983.37
2016,03,13,17,26,983.37
2016,03,13,17,27,983.37
2016,03,13,17,28,983.37
2016,03,13,17,29,983.37
2016,03,13,17,30,984.08
2016,03,13,17,31,984.08
2016,03,13,17,32,984.08